DateTimeUTC,F1_A11,F1_S11,BsB_S11,BsG_S11,BsR_S11,BbsB_S11,BbsG_S11,BbsR_S11,BaB_A11,BaG_A11,BaR_A11,Tu_S11,T_S11,Uu_S11,U_S11,P_S11,T1_A11
2021-12-25T04:00:00Z,00000200,21000000,,,,,,,0001.65,0001.87,0001.35,19.6,26.8,,00.0,0659.9,31.2
2021-12-25T04:01:00Z,00000200,21000000,,,,,,,0001.65,0001.31,0001.71,19.6,26.8,,00.0,0659.9,31.2
2021-12-25T04:02:00Z,00000200,21000000,,,,,,,0001.48,0001.27,0000.88,19.6,26.8,,00.0,0659.9,31.2
2021-12-25T04:03:00Z,00000200,61000000,,,,,,,0187.87,0174.29,0139.99,19.7,26.8,,00.0,0659.9,31.2
2021-12-25T04:04:00Z,00000200,41000000,0019.46,0014.34,0008.97,0004.02,0003.60,0002.46,0231.99,0215.45,0174.50,20.1,26.7,,00.0,0660.8,31.2
2021-12-25T04:05:00Z,00000200,01000000,0021.84,0016.06,0009.69,0005.17,0004.16,0002.73,0261.67,0243.81,0197.90,20.2,26.7,,00.0,0660.9,31.2
2021-12-25T04:06:00Z,00000200,01000000,0022.54,0015.60,0010.70,0004.89,0003.57,0002.95,0265.37,0246.80,0200.44,20.2,26.7,,00.0,0660.9,31.2
2021-12-25T04:07:00Z,00000200,01000000,0026.04,0019.50,0012.74,0005.88,0004.77,0003.33,0300.11,0279.73,0227.26,20.2,26.7,,00.0,0660.9,31.2
2021-12-25T04:08:00Z,00000200,01000000,0027.94,0021.41,0013.78,0005.66,0005.19,0003.69,0335.54,0312.95,0255.26,20.2,26.7,,00.0,0660.9,31.2
2021-12-25T04:09:00Z,00000200,01000000,0025.65,0018.42,0011.64,0004.93,0004.05,0003.23,0289.20,0269.82,0220.09,20.1,26.7,,00.0,0660.9,31.2
2021-12-25T04:10:00Z,00000200,01000000,0023.39,0016.55,0010.58,0004.63,0004.20,0003.12,0260.31,0242.61,0198.02,20.0,26.7,,00.0,0660.9,31.2
2021-12-25T04:11:00Z,00000200,01000000,0010.47,0007.94,0004.38,0002.74,0001.55,0000.91,0130.08,0122.29,0100.60,20.0,26.6,,00.0,0660.9,31.2
2021-12-25T04:12:00Z,00000200,01000000,0005.46,0003.29,0002.45,0001.38,0000.56,0000.91,0051.71,0048.51,0038.85,19.9,26.6,,00.0,0660.8,31.1
2021-12-25T04:13:00Z,00000200,01000000,0005.08,0003.01,0001.97,0001.54,0000.76,0000.25,0054.67,0050.71,0041.35,19.9,26.6,,00.0,0660.8,31.1
2021-12-25T04:14:00Z,00000200,01000000,0005.79,0004.48,0002.82,0001.70,0001.12,0000.82,0065.95,0061.07,0049.66,19.9,26.6,,00.0,0660.8,31.2
2021-12-25T04:15:00Z,00000200,01000000,0007.80,0005.21,0003.42,0002.15,0001.64,0001.15,0080.97,0075.44,0061.68,20.0,26.6,,00.0,0660.8,31.2
2021-12-25T04:16:00Z,00000200,01000000,0009.04,0006.49,0003.83,0002.16,0001.50,0001.08,0097.21,0090.77,0073.42,20.1,26.6,,00.0,0660.9,31.2
2021-12-25T04:17:00Z,00000200,01000000,0010.90,0007.49,0004.76,0002.82,0002.16,0001.11,0119.25,0111.07,0090.29,20.1,26.6,,00.0,0660.8,31.2
2021-12-25T04:18:00Z,00000200,01000000,0011.68,0008.32,0005.33,0003.22,0002.02,0001.69,0128.02,0119.10,0097.14,20.2,26.6,,00.0,0660.8,31.2
2021-12-25T04:19:00Z,00000200,01000000,0006.42,0004.89,0003.55,0001.55,0001.13,0001.01,0084.09,0079.46,0065.35,20.2,26.7,,00.0,0660.8,31.2
2021-12-25T04:20:00Z,00000200,01000000,0001.35,0000.57,0000.37,0000.21,-000.13,-000.19,0007.44,0006.81,0005.53,20.3,26.7,,00.0,0660.9,31.2
2021-12-25T04:21:00Z,00000200,01000000,0000.48,0000.26,-000.15,0000.39,0000.15,0000.01,0002.30,0002.03,0001.76,20.3,26.7,,00.0,0660.9,31.2
2021-12-25T04:22:00Z,00000200,01000000,0000.70,0000.50,0000.57,-000.06,0000.07,0000.28,0001.76,0001.60,0001.34,20.2,26.7,,00.0,0660.8,31.2
2021-12-25T04:23:00Z,00000200,01000000,0000.86,0000.23,0000.30,-000.71,-000.21,0000.31,0001.44,0001.20,0000.79,20.2,26.7,,00.0,0660.8,31.2
2021-12-25T04:24:00Z,00000200,01000000,0000.93,0000.27,-000.11,0000.29,0000.04,-000.27,0001.99,0001.96,0001.42,20.1,26.6,,00.0,0660.8,31.2
2021-12-25T04:25:00Z,00000200,01000000,0001.41,0000.99,0000.61,0000.89,0000.46,-000.19,0012.58,0011.32,0009.24,20.0,26.6,,00.0,0660.8,31.1
2021-12-25T04:26:00Z,00000200,01000000,0008.85,0006.14,0003.81,0002.41,0001.60,0000.54,0093.76,0087.38,0070.61,19.9,26.6,,00.0,0660.8,31.1
2021-12-25T04:27:00Z,00000200,01000000,0014.52,0010.43,0006.36,0003.57,0002.32,0001.65,0167.55,0155.83,0126.84,19.9,26.5,,00.0,0660.7,31.1
2021-12-25T04:28:00Z,00000200,01000000,0006.86,0005.07,0002.58,0001.60,0001.12,0000.78,0078.15,0072.96,0059.75,19.9,26.5,,00.0,0660.8,31.1
2021-12-25T04:29:00Z,00000200,01000000,0009.62,0006.20,0004.47,0001.66,0001.41,0001.12,0098.66,0091.31,0073.83,19.9,26.5,,00.0,0660.7,31.1
2021-12-25T04:30:00Z,00000200,01000000,0014.23,0009.57,0006.16,0003.55,0001.94,0001.63,0144.37,0134.93,0110.26,20.0,26.5,,00.0,0660.7,31.2
2021-12-25T04:31:00Z,00000200,01000000,0009.88,0007.20,0004.39,0002.31,0001.66,0001.12,0112.99,0105.35,0085.98,20.1,26.5,,00.0,0660.7,31.2
2021-12-25T04:32:00Z,00000200,01000000,0013.98,0009.40,0006.22,0002.90,0002.11,0001.57,0137.41,0128.32,0104.91,20.1,26.6,,00.0,0660.8,31.2
2021-12-25T04:33:00Z,00000200,01000000,0014.10,0010.23,0006.32,0002.49,0002.54,0001.38,0149.67,0140.13,0114.90,20.2,26.6,,00.0,0660.8,31.2
2021-12-25T04:34:00Z,00000200,01000000,0005.29,0004.04,0002.69,0001.53,0000.84,0000.86,0069.13,0064.76,0054.14,20.2,26.6,,00.0,0660.8,31.2
2021-12-25T04:35:00Z,00000200,01000000,0000.92,0000.49,0000.94,0001.09,-000.08,-000.02,0011.97,0011.31,0008.82,20.3,26.6,,00.0,0660.8,31.2
2021-12-25T04:36:00Z,00000200,01000000,0000.66,0000.33,0000.60,0001.13,0000.03,0000.26,0002.61,0002.66,0002.08,20.3,26.6,,00.0,0660.8,31.2
2021-12-25T04:37:00Z,00000200,01000000,0000.57,0000.17,0000.07,0000.61,0000.11,-000.16,0001.74,0001.28,0000.77,20.3,26.7,,00.0,0660.8,31.2
2021-12-25T04:38:00Z,00000200,01000000,0000.32,0000.36,0000.00,0000.36,0000.20,0000.01,0001.58,0001.48,0001.75,20.3,26.7,,00.0,0660.8,31.2
2021-12-25T04:39:00Z,00000200,01000000,0001.00,0000.18,0000.21,0000.39,0000.10,-000.25,0000.93,0000.91,0000.62,20.2,26.7,,00.0,0660.8,31.2
2021-12-25T04:40:00Z,00000200,01000000,0001.14,-000.05,-000.01,0000.70,0000.07,-000.02,0001.18,0001.44,0001.16,20.2,26.6,,00.0,0660.8,31.2
2021-12-25T04:41:00Z,00000200,01000000,0000.83,0000.55,0000.25,0000.74,-000.02,-000.19,0001.56,0000.99,0000.68,20.1,26.6,,00.0,0660.7,31.1
2021-12-25T04:42:00Z,00000200,01000000,0001.84,0000.42,0000.60,0000.57,-000.08,0000.11,0000.83,0001.02,0000.77,20.1,26.6,,00.0,0660.8,31.2
2021-12-25T04:43:00Z,00000200,01000000,0001.04,0000.14,-000.20,0000.48,-000.05,0000.04,0001.17,0000.71,0000.76,20.1,26.5,,00.0,0660.8,31.1
2021-12-25T04:44:00Z,00000200,01000000,0001.35,0000.24,0000.15,0000.39,0000.04,-000.10,0000.99,0001.14,0000.77,20.1,26.5,,00.0,0660.7,31.2
2021-12-25T04:45:00Z,00000200,01000000,0000.66,0000.14,0000.01,0000.77,-000.06,0000.01,0000.95,0000.94,0000.50,20.1,26.5,,00.0,0660.7,31.2
2021-12-25T04:46:00Z,00000200,01000000,0001.31,-000.12,0000.16,0000.28,0000.29,-000.03,0001.38,0001.55,0001.46,20.2,26.6,,00.0,0660.7,31.2
2021-12-25T04:47:00Z,00000200,01000000,0000.39,0000.12,0000.11,0000.53,-000.04,0000.07,0000.99,0000.60,0000.37,20.2,26.6,,00.0,0660.7,31.2
2021-12-25T04:48:00Z,00000200,01000000,0000.51,0000.40,0000.04,0000.81,0000.19,0000.10,0001.13,0001.10,0000.90,20.3,26.6,,00.0,0660.8,31.2
2021-12-25T04:49:00Z,00000200,01000000,-000.07,0000.18,0000.32,0000.43,-000.17,-000.13,0000.81,0000.81,0000.79,20.3,26.7,,00.0,0660.8,31.2
2021-12-25T04:50:00Z,00000200,01000000,0000.47,0000.51,0000.56,0001.10,0000.11,0000.18,0001.13,0001.31,0001.08,20.4,26.7,,00.0,0660.8,31.2
2021-12-25T04:51:00Z,00000200,01000000,0000.75,0000.19,0000.14,0000.10,-000.03,-000.55,0000.93,0000.80,0000.34,20.4,26.7,,00.0,0660.8,31.2
2021-12-25T04:52:00Z,00000200,01000000,0001.07,-000.09,0000.23,0000.71,0000.16,-000.09,0000.72,0000.44,0000.44,20.4,26.7,,00.0,0660.8,31.2
2021-12-25T04:53:00Z,00000200,01000000,0001.47,0000.02,0000.54,0000.35,0000.39,0000.01,0001.32,0001.61,0001.01,20.3,26.7,,00.0,0660.8,31.2
2021-12-25T04:54:00Z,00000200,01000000,0003.50,0002.47,0001.66,0001.01,0000.49,0000.58,0028.03,0025.53,0020.63,20.3,26.7,,00.0,0660.7,31.2
2021-12-25T04:55:00Z,00000200,01000000,0006.55,0004.50,0002.80,0001.21,0001.12,0000.99,0064.33,0060.13,0049.52,20.2,26.7,,00.0,0660.8,31.2
2021-12-25T04:56:00Z,00000200,01000000,0002.00,0001.64,0000.99,0000.96,-000.19,0000.25,0023.75,0022.38,0018.54,20.1,26.6,,00.0,0660.7,31.1
2021-12-25T04:57:00Z,00000200,41000000,,,,,,,0004.34,0003.91,0003.16,20.2,26.6,,00.0,0660.8,31.2
2021-12-25T04:58:00Z,00000200,61000000,,,,,,,0001.50,0001.51,0001.38,19.8,26.7,,00.0,0659.8,31.2
2021-12-25T04:59:00Z,00000200,21010000,,,,,,,0000.95,0000.84,0000.43,19.8,26.8,,00.0,0659.8,31.2
